Location: Miami, Florida
(25.6830°N, 80.1700°W)
Time: 04:36:14
(UTC-04:00)

Vanguard 2 Rocket - Visible Passes

Search period start: 18 November 2017 00:00
Search period end: 28 November 2017 00:00
Orbit: 556 x 3326 km, 32.9° (Epoch: 17 November)

Date Brightness Start Highest point End Pass type
(mag) Time Alt. Az. Time Alt. Az. Time Alt. Az.
18 Nov 9.9 03:05:17 22° ENE 03:05:17 22° ENE 03:07:45 10° ENE visible
18 Nov 8.2 05:11:06 61° NW 05:12:40 66° NNW 05:20:51 10° ENE visible
18 Nov 7.8 07:18:27 10° WNW 07:28:02 51° N 07:33:35 10° E visible
18 Nov 10.9 23:22:13 10° S 23:24:26 13° S 23:24:26 13° S visible
19 Nov 8.7 04:15:04 57° NE 04:15:04 57° NE 04:21:49 10° ENE visible
19 Nov 8.1 06:20:53 23° WNW 06:28:01 54° N 06:34:41 10° ENE visible
19 Nov 10.8 22:24:12 10° S 22:27:59 14° SSE 22:27:59 14° SSE visible
20 Nov 9.7 03:19:00 28° ENE 03:19:00 28° ENE 03:22:33 10° ENE visible
20 Nov 8.3 05:24:49 50° NW 05:27:39 60° N 05:35:43 10° ENE visible
20 Nov 10.8 23:34:06 10° SSW 23:37:21 17° SSW 23:37:21 17° SSW visible
21 Nov 10.5 02:22:54 10° ENE 02:22:54 10° ENE 02:22:57 10° ENE visible
21 Nov 8.6 04:28:43 62° NNE 04:28:43 62° NNE 04:36:37 10° ENE visible
21 Nov 8.0 06:34:32 19° WNW 06:43:08 58° N 06:49:44 10° E visible
21 Nov 10.6 22:34:48 10° S 22:40:59 20° S 22:40:59 20° S visible
22 Nov 9.5 03:32:36 35° ENE 03:32:36 35° ENE 03:37:18 10° ENE visible
22 Nov 8.4 05:38:25 41° WNW 05:42:45 58° N 05:50:42 10° ENE visible
22 Nov 10.6 21:37:03 10° S 21:44:41 18° SSE 21:44:41 18° SSE visible
22 Nov 10.8 23:46:56 10° SW 23:50:29 18° SSW 23:50:29 18° SSW visible
23 Nov 10.3 02:36:28 15° ENE 02:36:28 15° ENE 02:37:44 10° ENE visible
23 Nov 8.6 04:42:16 62° N 04:42:16 62° N 04:51:31 10° ENE visible
23 Nov 7.9 06:48:05 15° WNW 06:58:12 68° NNE 07:04:45 10° E visible
23 Nov 10.8 20:45:25 10° SE 20:47:03 10° SE 20:48:26 10° SE visible
23 Nov 10.4 22:46:57 10° SSW 22:54:13 26° S 22:54:13 26° S visible
24 Nov11.001:40:19ENE01:40:19ENE01:00:01SWvisible
24 Nov 9.3 03:46:07 42° NE 03:46:07 42° NE 03:52:08 10° ENE visible
24 Nov 8.3 05:51:56 35° WNW 05:57:53 63° N 06:05:45 10° E visible
24 Nov 10.3 21:47:59 10° S 21:58:01 26° SSE 21:58:01 26° SSE visible
25 Nov 10.7 00:00:25 10° SW 00:03:49 19° SW 00:03:49 19° SW visible
25 Nov 10.2 02:49:58 21° ENE 02:49:58 21° ENE 02:52:31 10° ENE visible
25 Nov 8.6 04:55:47 60° NNW 04:57:05 62° N 05:06:32 10° E visible
25 Nov 7.8 07:01:35 11° WNW 07:13:06 87° NNE 07:19:38 10° ESE visible
25 Nov 10.4 20:50:33 10° S 21:01:23 19° SE 21:01:51 19° SE visible
25 Nov 10.3 22:59:57 10° SW 23:07:39 31° SSW 23:07:39 31° SSW visible
26 Nov10.801:53:48ENE01:53:48ENE01:13:28WSWvisible
26 Nov 9.1 03:59:37 51° NE 03:59:37 51° NE 04:07:05 10° ENE visible
26 Nov 8.2 06:05:25 30° WNW 06:12:57 73° NNE 06:20:45 10° E visible
26 Nov 10.0 22:00:20 10° SSW 22:11:32 36° SSE 22:11:32 36° SSE visible
27 Nov 10.8 00:14:29 10° WSW 00:17:21 18° SW 00:17:21 18° SW visible
27 Nov 10.0 03:03:28 27° ENE 03:03:28 27° ENE 03:07:23 10° ENE visible
27 Nov 8.6 05:09:17 56° NW 05:12:15 67° N 05:21:36 10° E visible
27 Nov 7.9 07:15:49 10° WNW 07:27:42 68° SSW 07:34:12 10° SE visible
27 Nov 10.1 21:01:44 10° S 21:15:22 29° SE 21:15:27 29° SE visible
27 Nov 10.2 23:13:35 10° SW 23:21:16 33° SW 23:21:16 33° SW visible
